|
Cosmos 1470 Rocket - Orbit
|
Limerick;
08:28:57
| Home | Info | Passes |
|
View from above orbital plane
|
View from above satellite
|
Ground track
|
The orbit data is extracted from the following two-line orbital elements,
1 14148U 83061B 13168.18986377 .00000197 00000-0 21540-4 0 3621
2 14148 082.5180 197.2225 0023672 105.9308 320.6631 14.82338568618327
| Epoch (UTC): | 17 June 2013 04:33:24 |
| Eccentricity: | 0.0023672 |
| inclination: | 82.5180° |
| perigee height: | 605 km |
| apogee height: | 638 km |
| right ascension of ascending node: | 197.2225° |
| argument of perigee: | 105.9308° |
| revolutions per day: | 14.82338568 |
| mean anomaly at epoch: | 320.6631° |
| orbit number at epoch: | 61832 |
The dashed part of the orbit path shows where the satellite is in the earth's shadow,
|
|